Kansas Department of Transportation
RWIS(Road and Runway Information System) Map and Weather Data





Station
Surface
Air
Wind
Site IDSensor TypeLocationTemperature (°F)Temperature (°F)Humidity (%)Speed (mi/h)Gusts (mi/h)DirectionTime
123002AtmosphericBonner Springs 7042712SOct 14 2019 12:55PM
123002ApproachBonner Springs93     Oct 14 2019 12:55PM
123002DeckBonner Springs90     Oct 14 2019 12:55PM
123014AtmosphericBull Creek 7047611SOct 14 2019 12:55PM
123014DeckBull Creek90     Oct 14 2019 12:55PM
123014DepartureBull Creek90     Oct 14 2019 12:55PM
123015AtmosphericLeavenworth 665848SSEOct 14 2019 12:55PM
123015DeckLeavenworth84     Oct 14 2019 12:55PM
123015DepartureLeavenworth79     Oct 14 2019 12:55PM
123020AtmosphericMayetta 72401215SSEOct 14 2019 12:55PM
123020RoadwayMayettaUnavailable     Oct 14 2019 12:55PM
123020DeckMayettaUnavailable     Oct 14 2019 12:55PM
505000AtmosphericKTA 1 7345610SSEOct 14 2019 12:50PM
505000ApproachKTA 188     Oct 14 2019 12:50PM
505000DeckKTA 191     Oct 14 2019 12:50PM
505001AtmosphericKTA 2 7348611SEOct 14 2019 12:50PM
505001ApproachKTA 290     Oct 14 2019 12:50PM
505001DeckKTA 293     Oct 14 2019 12:50PM
505002AtmosphericKTA 3 735449SWOct 14 2019 12:50PM
505002ApproachKTA 395     Oct 14 2019 12:50PM
505002DeckKTA 388     Oct 14 2019 12:50PM
505003AtmosphericKTA 4 73351419NOct 14 2019 12:50PM
505003ApproachKTA 491     Oct 14 2019 12:50PM
505003DeckKTA 490     Oct 14 2019 12:50PM
505004AtmosphericKTA 5 72991216SOct 14 2019 12:50PM
505004RoadwayKTA 590     Oct 14 2019 12:50PM
505004RoadwayKTA 590     Oct 14 2019 12:50PM
505005AtmosphericKTA 6 7240712SOct 14 2019 12:50PM
505005Approach KTA 693     Oct 14 2019 12:50PM
505005DeckKTA 686     Oct 14 2019 12:50PM
505006AtmosphericKTA 7 7249410SOct 14 2019 12:50PM
505006ApproachKTA 793     Oct 14 2019 12:50PM
505006DeckKTA 781     Oct 14 2019 12:50PM
505007AtmosphericKTA 8 725069SSEOct 14 2019 12:50PM
505007ApproachKTA 890     Oct 14 2019 12:50PM
505007DeckKTA 886     Oct 14 2019 12:50PM
505008AtmosphericKTA 9 661137SOct 14 2019 12:50PM
505008ApproachKTA 991     Oct 14 2019 12:50PM
505008DeckKTA 982     Oct 14 2019 12:50PM
505009AtmosphericKTA 10 774537SOct 14 2019 12:50PM
505009ApproachKTA 1088     Oct 14 2019 12:50PM
505009DeckKTA 1084     Oct 14 2019 12:50PM
505010AtmosphericWebb 75401014EOct 14 2019 12:55PM
505010DeckWebb90     Oct 14 2019 12:55PM
505010NullWebb91     Oct 14 2019 12:55PM
505014AtmosphericI-135 7254914SOct 14 2019 12:50PM
505014ApproachI-13588     Oct 14 2019 12:55PM
505014DeckI-13597     Oct 14 2019 12:55PM
540000AtmosphericBlue Rapids 724126EOct 14 2019 12:55PM
540000DeckBlue Rapids84     Oct 14 2019 12:55PM
540000DepartureBlue Rapids90     Oct 14 2019 12:55PM
540001AtmosphericSabetha 6850410SOct 14 2019 12:55PM
540001ApproachSabetha91     Oct 14 2019 12:55PM
540001DeckSabethaUnavailable     Oct 14 2019 12:55PM
540002AtmosphericWestgate 7335610SSEOct 14 2019 12:55PM
540002DeckWestgate90     Oct 14 2019 12:55PM
540002DepartureWestgateUnavailable     Oct 14 2019 12:55PM
540003AtmosphericEmporia 7252412SEOct 14 2019 12:55PM
540003ApproachEmporia91     Oct 14 2019 12:55PM
540003DeckEmporia88     Oct 14 2019 12:55PM
540005AtmosphericLawrence 724349SEOct 14 2019 12:55PM
540005ApproachLawrence97     Oct 14 2019 12:55PM
540005DeckLawrence93     Oct 14 2019 12:55PM
540006AtmosphericTroy 665058SSEOct 14 2019 12:00PM
540006DeckTroy77     Oct 14 2019 12:00PM
540006DepartureTroy84     Oct 14 2019 12:00PM
540007AtmosphericManhattan 734236SSEOct 14 2019 12:55PM
540007DepartureManhattan86     Oct 14 2019 12:55PM
540007DeckManhattan91     Oct 14 2019 12:55PM
541000AtmosphericElkhart      Oct 13 2019 6:55PM
541000ApproachElkhart      Oct 13 2019 6:55PM
541000DeckElkhart      Oct 13 2019 6:55PM
541000DeckElkhart      Oct 13 2019 6:55PM
541001AtmosphericSyracuse 702059WNWOct 14 2019 12:55PM
541001Out of Service for WinterSyracuse82     Oct 14 2019 12:55PM
541001DeckSyracuse79     Oct 14 2019 12:55PM
541002AtmosphericLiberal 703337WSWOct 14 2019 12:55PM
541002ApproachLiberalUnavailable     Oct 14 2019 12:55PM
541002DeckLiberalUnavailable     Oct 14 2019 12:55PM
541003AtmosphericFord 7238611SOct 14 2019 12:55PM
541003DeckFord90     Oct 14 2019 12:55PM
541003DepartureFord91     Oct 14 2019 12:55PM
541004AtmosphericScott 522049SSEOct 14 2019 12:55PM
541004DepartureScott93     Oct 14 2019 12:55PM
541005AtmosphericNess 7339712SOct 14 2019 12:55PM
541005DeckNess90     Oct 14 2019 12:55PM
541005DepartureNess95     Oct 14 2019 12:55PM
543000AtmosphericJunction City 7236812NNEOct 14 2019 12:55PM
543000ApproachJunction City90     Oct 14 2019 12:55PM
543000DeckJunction City90     Oct 14 2019 12:55PM
543001AtmosphericEllsworth 73431319SSEOct 14 2019 12:55PM
543001RoadwayEllsworth91     Oct 14 2019 12:55PM
543002AtmosphericMcPherson 73441421SOct 14 2019 12:55PM
543002ApproachMcPherson86     Oct 14 2019 12:55PM
543002DeckMcPherson84     Oct 14 2019 12:55PM
543003AtmosphericSalina 73281114SEOct 14 2019 12:55PM
543003DepartureSalina88     Oct 14 2019 12:55PM
543003RoadwaySalina88     Oct 14 2019 12:55PM
543004AtmosphericConcordia 7050914SSEOct 14 2019 12:55PM
543004ApproachConcordia88     Oct 14 2019 12:55PM
543004DeckConcordia81     Oct 14 2019 12:55PM
543005AtmosphericPeabody 724000NNWOct 14 2019 12:55PM
543005ApproachPeabody95     Oct 14 2019 12:55PM
543005DeckPeabodyUnavailable     Oct 14 2019 12:55PM
560000AtmosphericEdson 721657WOct 14 2019 12:55PM
560000RoadwayEdson91     Oct 14 2019 12:55PM
560000RoadwayEdson86     Oct 14 2019 12:55PM
560001AtmosphericOakley 683858SOct 14 2019 12:55PM
560001ApproachOakley90     Oct 14 2019 12:55PM
560001DeckOakley90     Oct 14 2019 12:55PM
560002AtmosphericAtwood 722549SOct 14 2019 12:55PM
560002ApproachAtwood79     Oct 14 2019 12:55PM
560002DeckAtwoodUnavailable     Oct 14 2019 12:55PM
560003AtmosphericJennings 753047SSWOct 14 2019 12:55PM
560003ApproachJennings95     Oct 14 2019 12:55PM
560003DeckJennings81     Oct 14 2019 12:55PM
560003DeckJennings81     Oct 14 2019 12:55PM
560004AtmosphericWakeeney 7339816SSEOct 14 2019 12:55PM
560004ApproachWakeeney90     Oct 14 2019 12:55PM
560004DeckWakeeney91     Oct 14 2019 12:55PM
560005AtmosphericWalker 7538916SOct 14 2019 12:55PM
560005ApproachWalker93     Oct 14 2019 12:55PM
560005DeckWalker88     Oct 14 2019 12:55PM
560006AtmosphericBow Creek(Stockton) 702868SEOct 14 2019 12:55PM
560006ApproachBow Creek(Stockton)Unavailable     Oct 14 2019 12:55PM
560006DeckBow Creek(Stockton)82     Oct 14 2019 12:55PM
560007AtmosphericLebanon 5945610SOct 14 2019 12:55PM
560007ApproachLebanon-36     Oct 14 2019 12:55PM
560007DeckLebanon88     Oct 14 2019 12:55PM
560008AtmosphericWallace 751537SWOct 14 2019 12:55PM
560008ApproachWallace97     Oct 14 2019 12:55PM
560008DeckWallace90     Oct 14 2019 12:55PM
572000AtmosphericGreat Bend 75421417SOct 14 2019 12:55PM
572000ApproachGreat Bend95     Oct 14 2019 12:55PM
572000DeckGreat Bend90     Oct 14 2019 12:55PM
572002AtmosphericAnthony 7056711SEOct 14 2019 12:55PM
572002ApproachAnthony97     Oct 14 2019 12:55PM
572002DeckAnthony91     Oct 14 2019 12:55PM
573000AtmosphericEureka 7252914SEOct 14 2019 12:55PM
573000DeckEureka95     Oct 14 2019 12:55PM
573000DepartureEureka82     Oct 14 2019 12:55PM
573001AtmosphericGarnett 724749SOct 14 2019 12:55PM
573001ApproachGarnett91     Oct 14 2019 12:55PM
573001DeckGarnett90     Oct 14 2019 12:55PM
573002AtmosphericCaney 702549EOct 14 2019 12:55PM
573002RoadwayCaney95     Oct 14 2019 12:55PM
573003AtmosphericChetopa 724726EOct 14 2019 12:55PM
573003DeckChetopa95     Oct 14 2019 12:55PM
573003DeckChetopa95     Oct 14 2019 12:55PM
573003DepartureChetopa102     Oct 14 2019 12:55PM
573004AtmosphericChanute 725349SEOct 14 2019 12:55PM
573004ApproachChanute95     Oct 14 2019 12:55PM
573004DeckChanute90     Oct 14 2019 12:55PM